Welcome to the New NWS' Forecast!
Most changes are behind the scenes, but click here for differences you might notice.
Latest weather observations around

Glens Falls, Floyd Bennett Memorial Airport (KGFL)

Using English Units (Switch to International System of Units)
Date/ Time (EDT) Wind (mph) Vis. (mi) Weather Sky Cond. Temp (°F) Rel. Humidity Wind Chill (°F) Heat Index (°F) Pressure Precip. (in)
Air Dwpt 6 hour Altimeter (inHg) Sea level (inHg) 1 hr 3 hr 6 hr
Max Min
Jul 16 05:53 Calm 10 Clear CLR 62 61     96%     29.98 29.98      
Jul 16 04:53 Calm 10 Clear CLR 62 61     96%     29.97 29.96      
Jul 16 03:53 N 7 10 Clear CLR 66 63     90%     29.96 29.95      
Jul 16 02:53 Calm 10 Clear CLR 64 63     96%     29.97 29.96      
Jul 16 01:53 Calm 10 Clear CLR 66 64     93%     29.97 29.96      
Jul 16 00:53 Calm 10 Clear CLR 68 66     93%     29.98 29.96      
Jul 15 23:53 Calm 10 Partly Cloudy SCT065 68 67     96%     29.97 29.96      
Jul 15 22:53 Calm 10 Clear CLR 70 68     93%     29.95 29.94      
Jul 15 21:53 N 5 10 Mostly Cloudy FEW065 BKN085 73 68     84%   74 29.95 29.94      
Jul 15 20:53 N 5 10 Mostly Cloudy BKN070 78 68     71%   79 29.93 29.92      
Jul 15 19:53 NE 8 10 Mostly Clear FEW095 83 66     57%   85 29.92 29.91      
Jul 15 18:53 NNE 6 10 Cloudy OVC100 84 67     57%   87 29.91 29.9      
Jul 15 17:53 NNE 6 10 Partly Cloudy SCT100 85 68     57%   88 29.9 29.89      
Jul 15 16:53 ENE 7 10 Mostly Clear FEW080 85 66     53%   87 29.91 29.9      
Jul 15 15:53 ENE 5 10 Clear CLR 85 64     50%   86 29.92 29.91      
Jul 15 14:53 ENE 10 10 Mostly Clear FEW065 81 65     58%   83 29.94 29.93      
Jul 15 14:36 ENE 13 10 Thunderstorms FEW050 SCT065 82 67     60%   85 29.94        
Jul 15 13:53 S 5 10 Partly Cloudy SCT065 87 66     50%   89 29.93 29.92      
Jul 15 12:53 S 7 10 Clear CLR 86 68     55%   89 29.94 29.93      
Jul 15 11:53 Calm 10 Clear CLR 84 67     57%   87 29.95 29.93      
Jul 15 10:53 N 3 10 Mostly Clear FEW032 82 68     63%   85 29.95 29.94      
Jul 15 09:53 N 5 10 Partly Cloudy SCT030 81 69     67%   84 29.96 29.95      
Jul 15 08:53 S 5 10 Clear CLR 78 70     76%   79 29.97 29.96      
Jul 15 07:53 S 3 10 Clear CLR 75 70     84%   76 29.98 29.97      
Jul 15 06:53 S 5 10 Cloudy OVC110 73 70     90%   74 29.98 29.97      
Jul 15 05:53 S 7 10 Cloudy OVC120 70 69     97%     29.98 29.97      
Jul 15 04:53 Calm 10 Clear CLR 69 68     96%     29.97 29.96      
Jul 15 03:53 SW 3 10 Partly Cloudy SCT100 69 68     96%     29.97 29.96      
Jul 15 02:53 S 3 10 Cloudy OVC100 70 68     93%     29.98 29.97      
Jul 15 01:53 Calm 10 Cloudy OVC100 71 69     93%   72 29.99 29.98     0
Jul 15 00:53 Calm 4 Fog/Mist OVC100 69 69     100%     29.99 29.98      
Jul 14 23:53 Calm 5 Fog/Mist OVC100 70 70     100%     29.99 29.98      
Jul 14 22:53 Calm 4 Fog/Mist OVC110 71 71     100%   73 29.99 29.99   0  
Jul 14 21:53 Calm 10 Cloudy OVC120 72 71     97%   73 30 29.99      
Jul 14 20:53 WNW 3 4 Fog/Mist CLR 72 72     100%   74 29.98 29.97 0    
Jul 14 20:45 NW 3 2 Fog/Mist CLR 72 72     100%   74 29.97   0    
Jul 14 19:53 Calm 9 Light Rain SCT050 BKN070 BKN100 74 72     94%   75 29.97 29.97 0   0
Jul 14 18:53 Calm 10 Mostly Cloudy BKN090 75 72     90%   76 29.98 29.97 0    
Jul 14 17:53 N 9 7 Light Rain FEW047 BKN055 OVC090 76 71     85%   77 30 29.99 0    
Jul 14 16:53 SSE 8 7 Light Rain FEW016 SCT090 BKN110 79 70     74%   82 30 30 0 0  
Jul 14 15:53 SSE 9 10 Cloudy OVC100 80 68     67%   83 30.01 30      
Jul 14 14:53 SSE 8 10 Partly Cloudy SCT095 79 66     65%   80 30.02 30.02      
Jul 14 13:53 SSE 6 10 Cloudy BKN070 OVC100 75 66     74%   76 30.04 30.03     0
Jul 14 12:53 S 5 10 Cloudy OVC070 74 65     74%   74 30.06 30.06      
Jul 14 11:53 S 6 10 Cloudy OVC075 72 64     76%   72 30.07 30.07      
Jul 14 10:53 S 7 10 Cloudy OVC080 71 63     76%   71 30.08 30.08 0 0  
Jul 14 09:53 SSW 6 10 Mostly Cloudy BKN090 70 63     78%     30.09 30.09      
Jul 14 08:53 SSE 5 10 Cloudy OVC085 67 63     87%     30.09 30.09 0    
Jul 14 07:53 ESE 3 10 Mostly Cloudy BKN100 BKN120 67 61     81%     30.1 30.1     0
Jul 14 06:53 ESE 3 10 Cloudy OVC100 65 61     87%     30.1 30.1      
Jul 14 05:53 Calm 10 Cloudy OVC100 63 61     93%     30.11 30.1      
Jul 14 03:53 Calm 10 Partly Cloudy SCT110 61 60     97%     30.11 30.1      
Jul 14 01:53 NNW 3 10 Clear CLR 61 59     93%     30.13 30.12      
Jul 14 00:53 Calm 10 Clear CLR 58 58     100%     30.12 30.12      
Jul 13 23:53 Calm 10 Clear CLR 59 58     96%     30.12 30.12      
Jul 13 22:53 Calm 10 Clear CLR 61 59     93%     30.13 30.13      
Jul 13 21:53 Calm 10 Clear CLR 63 60     90%     30.14 30.14      
Jul 13 20:53 Calm 10 Clear CLR 68 60     76%     30.13 30.12      
Jul 13 19:53 Calm 10 Clear CLR 75 62     64%   75 30.13 30.13      
Jul 13 18:53 S 3 10 Clear CLR 80 57     45%   80 30.13 30.13      
Jul 13 17:53 SSE 7 10 Clear CLR 84 54     36%   83 30.14 30.13      
Jul 13 16:53 SSE 5 10 Clear CLR 83 55     38%   82 30.15 30.14      
Jul 13 15:53 E 6 10 Clear CLR 83 55     38%   82 30.15 30.15      
Jul 13 14:53 3 10 Clear CLR 83 55     38%   82 30.17 30.16      
Jul 13 13:53 Calm 10 Clear CLR 83 56     40%   82 30.19 30.18      
Jul 13 12:53 Calm 10 Clear CLR 80 55     42%   80 30.21 30.2      
Jul 13 11:53 Calm 10 Clear CLR 77 56     48%   77 30.22 30.22      
Jul 13 10:53 Calm 10 Clear CLR 75 56     52%   75 30.24 30.24      
Jul 13 09:53 Calm 10 Clear CLR 72 58     61%   72 30.24 30.24      
Jul 13 08:53 Calm 10 Clear CLR 69 59     70%     30.26 30.25      
Jul 13 07:53 3 10 Clear CLR 66 59     78%     30.26 30.25      
Jul 13 06:53 Calm 10 Clear CLR 59 57     93%     30.25 30.24      
Jul 13 05:53 Calm 4 Fog/Mist CLR 54 54     100%     30.23 30.23      
Jul 13 05:30 Calm 4 Fog/Mist CLR 55 55     100%     30.22        
Jul 13 03:53 Calm 6 Fog/Mist CLR 54 54     100%     30.22 30.22      
Jul 13 03:49 Calm 8 Clear CLR 54 54     100%     30.22        
May 15 04:53 Calm 10 Mostly Cloudy BKN090 56 54     93%     29.8 29.79      
May 14 03:42 SSW 7 10 Cloudy BKN014 BKN026 OVC039 53 49     86%     29.98        
May 13 22:53 SSW 10 10 Clear CLR 53 48     83%     30.03 30.03      
May 13 18:53 SSW 9 10 Clear CLR 66 44     45%     29.99 30      
Notice The following observation data may not be complete
May 13 00:13 Calm 0.75 Fog/Mist VV003   35      %     30.15        
May 12 11:53 5 10 Cloudy OVC065 51 33     50%     30.16 30.17 0    
May 12 10:53 Calm 10 Light Rain BKN085 OVC120 50 33     52%     30.17 30.19 0 0  
May 11 15:53   10 Clear CLR 60 31     33%     30.03 30.03      
Jun 09 08:53 S 5 10 Mostly Cloudy BKN070 64 51     63%     29.71 29.7      
Jun 07 20:15 Calm 10 Mostly Clear FEW002 64 52     65%     29.98